Tracking 33200 objects as of 17-Feb-2026
HD Live streaming from Space Station
objects crossing your sky now

ARIANE 3 DEB

Track ARIANE 3 DEB now!


NORAD ID: 33538
Int'l Code: 1988-081N
Perigee: 539.1 km
Apogee: 36,007.7 km
Inclination: 7.6 °
Period: 641.7 minutes
Semi major axis: 24644 km
RCS: 0.0238 m2 (small)
Launch date: September 8, 1988
Source: France (FR)
Launch site: FRENCH GUIANA (FRGUI)

Note: This is SATELLITE DEBRIS
Your satellite tracking list
Your tracking list is empty




NASA's NSSDC Master Catalog

Two Line Element Set (TLE):
1 33538U 88081N   26047.12134657 -.00000061  00000-0 -81729-3 0  9994
2 33538   7.6032  37.0905 7196082 221.6046  52.8118  2.24401443167766
Source of the keplerian elements: AFSPC